Location: Peterborough
(44.3091°N, 78.3197°W)
Time: 05:50:35
(UTC-04:00)

Transit 4A - All Passes

Search period start: 22 March 2023 00:00
Search period end: 01 April 2023 00:00
Orbit: 868 x 976 km, 66.8° (Epoch: 21 March)

Date Brightness Start Highest point End Pass type
(mag) Time Alt. Az. Time Alt. Az. Time Alt. Az.
22 Mar - 06:39:09 10° SE 06:42:06 14° ESE 06:45:04 10° ENE visible
22 Mar - 08:21:43 10° SSW 08:27:32 90° NNW 08:33:29 10° NNE daylight
22 Mar - 10:10:23 10° W 10:14:43 21° NW 10:19:09 10° N daylight
22 Mar - 15:36:43 10° NNW 15:41:58 29° NE 15:47:17 10° ESE daylight
22 Mar - 17:22:40 10° NW 17:28:44 64° WSW 17:34:57 10° SSE daylight
23 Mar - 06:46:40 10° SSE 06:50:58 22° ESE 06:55:20 10° ENE daylight
23 Mar - 08:31:00 10° SW 08:36:46 64° NW 08:42:39 10° NNE daylight
23 Mar - 10:20:44 10° WNW 10:24:21 16° NNW 10:28:00 10° N daylight
23 Mar - 14:00:59 10° N 14:03:12 12° NNE 14:05:26 10° NE daylight
23 Mar - 15:45:43 10° NNW 15:51:24 38° NE 15:57:11 10° ESE daylight
23 Mar - 17:32:03 10° NW 17:37:50 44° WSW 17:43:44 10° S daylight
24 Mar - 06:54:50 10° S 06:59:55 33° ESE 07:05:05 10° NE daylight
24 Mar - 08:40:31 10° WSW 08:46:04 45° NW 08:51:46 10° NNE daylight
24 Mar - 10:31:24 10° NW 10:34:03 13° NNW 10:36:45 10° N daylight
24 Mar - 14:09:36 10° N 14:12:57 15° NNE 14:16:20 10° ENE daylight
24 Mar - 15:54:46 10° NNW 16:00:45 52° NE 16:06:52 10° SE daylight
24 Mar - 17:41:34 10° NW 17:46:51 31° WSW 17:52:14 10° SSW daylight
25 Mar - 07:03:24 10° S 07:08:56 48° ESE 07:14:35 10° NE daylight
25 Mar - 08:50:14 10° WSW 08:55:28 33° NW 09:00:48 10° NNE daylight
25 Mar - 10:42:37 10° NNW 10:43:50 11° NNW 10:45:04 10° N daylight
25 Mar - 14:18:25 10° N 14:22:37 19° NE 14:26:53 10° ENE daylight
25 Mar - 16:03:53 10° NNW 16:10:03 73° ENE 16:16:20 10° SE daylight
25 Mar - 17:51:22 10° WNW 17:55:48 21° WSW 18:00:18 10° SSW daylight
26 Mar - 05:32:12 10° ESE 05:32:49 10° E 05:33:27 10° E visible
26 Mar - 07:12:15 10° SSW 07:18:01 71° ESE 07:23:55 10° NE daylight
26 Mar - 09:00:11 10° W 09:04:57 25° NW 09:09:48 10° NNE daylight
26 Mar - 14:27:19 10° NNW 14:32:13 24° NE 14:37:11 10° E daylight
26 Mar - 16:13:05 10° NNW 16:19:15 81° WSW 16:25:33 10° SSE daylight
26 Mar - 18:01:46 10° WNW 18:04:41 14° WSW 18:07:37 10° SW daylight
27 Mar - 05:38:08 10° SE 05:41:38 17° ESE 05:45:11 10° ENE visible
27 Mar - 07:21:22 10° SW 07:27:11 81° WNW 07:33:08 10° NNE daylight
27 Mar - 09:10:23 10° W 09:14:30 19° NW 09:18:43 10° N daylight
27 Mar - 12:52:09 10° N 12:53:16 10° NNE 12:54:23 10° NNE daylight
27 Mar - 14:36:17 10° NNW 14:41:43 32° NE 14:47:14 10° ESE daylight
27 Mar - 16:22:22 10° NW 16:28:23 57° WSW 16:34:31 10° SSE daylight
28 Mar - 05:45:54 10° SSE 05:50:32 25° ESE 05:55:13 10° NE visible
28 Mar - 07:30:44 10° SW 07:36:26 57° NW 07:42:17 10° NNE daylight
28 Mar - 09:20:50 10° WNW 09:24:10 15° NNW 09:27:33 10° N daylight
28 Mar - 13:00:23 10° N 13:03:04 13° NNE 13:05:45 10° NE daylight
28 Mar - 14:45:19 10° NNW 14:51:08 43° NE 14:57:03 10° ESE daylight
28 Mar - 16:31:47 10° NW 16:37:27 39° WSW 16:43:13 10° S daylight
29 Mar - 05:54:13 10° S 05:59:30 37° ESE 06:04:52 10° NE visible
29 Mar - 07:40:18 10° WSW 07:45:46 41° NW 07:51:23 10° NNE daylight
29 Mar - 09:31:36 10° NW 09:33:54 12° NNW 09:36:13 10° N daylight
29 Mar - 13:09:06 10° N 13:12:47 16° NNE 13:16:31 10° ENE daylight
29 Mar - 14:54:23 10° NNW 15:00:27 59° NE 15:06:40 10° SE daylight
29 Mar - 16:41:23 10° NW 16:46:27 27° WSW 16:51:35 10° SSW daylight
30 Mar - 06:02:53 10° SSW 06:08:32 55° ESE 06:14:18 10° NE visible
30 Mar - 07:50:07 10° WSW 07:55:12 30° NW 08:00:24 10° NNE daylight
30 Mar - 13:17:57 10° N 13:22:26 20° NE 13:26:58 10° E daylight
30 Mar - 15:03:32 10° NNW 15:09:43 81° ENE 15:16:02 10° SE daylight
30 Mar - 16:51:19 10° WNW 16:55:22 18° WSW 16:59:28 10° SW daylight
31 Mar - 04:30:09 10° ESE 04:32:20 12° E 04:34:32 10° ENE visible
31 Mar - 06:11:50 10° SSW 06:17:39 81° ESE 06:23:36 10° NNE visible
31 Mar - 08:00:07 10° W 08:04:42 23° NW 08:09:22 10° NNE daylight
31 Mar - 13:26:53 10° NNW 13:31:59 26° NE 13:37:10 10° E daylight
31 Mar - 15:12:45 10° NW 15:18:54 72° WSW 15:25:11 10° SSE daylight
31 Mar - 17:02:11 10° W 17:04:13 12° W 17:06:16 10° WSW daylight
